Location: Trois-Rivi�res
(46.3500°N, 72.5500°W)
Time: 11:30:19
(UTC-04:00)

OTV 5 (USA 277) - Pass Details

Date: 10 October 2017
Orbit: 404 x 417 km, 43.0° (Epoch: 07 September)

Event Time Altitude Azimuth Distance (km) Brightness Sun altitude
Rises 19:44:04 0° 227° (SW) 2,347 ? -16.6°
Reaches altitude 10° 19:46:26 10° 212° (SSW) 1,486 ? -17.0°
Enters shadow 19:48:51 23° 167° (SSE) 943 ? -17.4°
